Location: Caltech
(34.1382°N, 118.1253°W)
Time: 22:42:10
(UTC-08:00)

Saudisat 1A - Visible Passes

Search period start: 09 February 2016 00:00
Search period end: 19 February 2016 00:00
Orbit: 565 x 630 km, 64.6° (Epoch: 09 February)

Date Brightness Start Highest point End Pass type
(mag) Time Alt. Az. Time Alt. Az. Time Alt. Az.
09 Feb 10.0 05:45:17 10° N 05:49:11 27° NE 05:53:02 10° ESE visible
10 Feb 9.0 05:55:19 10° NNW 05:59:45 50° ENE 06:04:06 10° SE visible
11 Feb 11.0 04:28:59 10° NNE 04:30:08 11° NE 04:31:17 10° ENE visible
11 Feb 8.1 06:05:38 10° NNW 06:10:12 85° WSW 06:14:41 10° SSE visible
12 Feb 10.6 04:37:42 10° N 04:40:54 19° NE 04:44:04 10° E visible
13 Feb 9.7 04:48:01 13° N 04:51:32 32° NE 04:55:34 10° ESE visible
13 Feb 9.9 18:50:15 10° SSE 18:51:34 15° SE 18:51:34 15° SE visible
14 Feb 8.5 04:59:00 20° NNW 05:02:04 60° ENE 05:06:29 10° SE visible
14 Feb 8.6 18:59:30 10° S 19:03:13 35° ESE 19:03:13 35° ESE visible
14 Feb 11.2 20:39:44 10° W 20:40:00 11° W 20:40:00 11° W visible
15 Feb 11.1 03:33:25 12° ENE 03:33:25 12° ENE 03:34:31 10° ENE visible
15 Feb 7.9 05:10:10 28° NW 05:12:29 70° WSW 05:16:55 10° SSE visible
15 Feb 7.9 19:09:28 10° SSW 19:13:49 73° ESE 19:14:50 51° NE visible
16 Feb 10.6 03:44:44 18° ENE 03:44:44 18° ENE 03:46:43 10° ESE visible
16 Feb 8.7 05:21:30 29° WNW 05:22:46 35° WSW 05:26:50 10° S visible
16 Feb 8.6 19:19:55 10° SW 19:24:14 57° WNW 19:26:21 29° N visible
17 Feb 10.3 03:56:12 22° ESE 03:56:12 22° ESE 03:58:01 10° SE visible
17 Feb 9.5 05:32:58 18° WSW 05:32:59 18° WSW 05:36:04 10° SSW visible
17 Feb 9.8 19:30:51 10° WSW 19:34:45 30° NW 19:37:44 15° N visible
18 Feb 10.4 04:07:46 17° SE 04:07:46 17° SE 04:08:47 10° SE visible
18 Feb 8.4 18:01:34 10° S 18:05:44 43° ESE 18:09:59 10° NE visible
18 Feb 10.6 19:42:23 10° W 19:45:23 18° NW 19:48:27 10° N visible
